Home > Weather > Santa Cruz > Past weeks

Flag for USA Past Weather in Santa Cruz, California, USA — Yesterday and Last 2 Weeks

Now
76 °F

Sunny.


Feels Like: 78 °F
Forecast: 53 / 73 °F
Wind: 10 mph from South

Location: Watsonville Municipal Airport

Current Time: Jun 25, 2016 at 4:14:49 PM

Latest Report: Jun 25, 2016 at 2:53 PM


Visibility: 10 mi

Pressure: 29.96 "Hg

Humidity: 40%

Dew Point: 50 °F

Location of Santa CruzLocation

Past Weather in Santa Cruz — Graph

°F

Santa Cruz Temperature Yesterday

Maximum temperature yesterday: 74 °F (at 1:53 PM)
Minimum temperature yesterday: 51 °F (at 5:53 AM)
Average temperature yesterday: 62 °F

High & Low Weather Summary for the Past Weeks

 TemperatureHumidityPressure
High88 °F (Jun 19, 1:53 PM)100% (Jun 22, 6:53 AM)30.18 "Hg (Jun 22, 6:53 AM)
Low46 °F (Jun 15, 4:53 AM)24% (Jun 19, 1:53 PM)29.92 "Hg (Jun 11, 4:53 AM)
Average62 °F70%30.04 "Hg
* Reported Jun 10 2:53 PM — Jun 25 2:53 PM, Santa Cruz, Weather by CustomWeather, © 2016

Note: Actual official high and low records may vary slightly from our data, if they occured in-between our weather recording intervals... More about our weather records

Advertising

Santa Cruz Weather History for the Previous 24 Hours

Scroll right to see more
 ConditionsComfort  
Time TempWeatherWind HumidityBarometerVisibility
2:53 PM
Sat, Jun 25
76 °FSunny.10 mph40%29.96 "Hg10 mi
1:53 PM77 °FSunny.10 mph40%29.96 "Hg10 mi
12:53 PM76 °FSunny.7 mph43%29.97 "Hg10 mi
11:53 AM74 °FSunny.10 mph48%29.97 "Hg10 mi
10:53 AM72 °FSunny.7 mph57%29.98 "Hg10 mi
9:53 AM70 °FSunny.3 mph55%29.98 "Hg10 mi
8:53 AM63 °FSunny.No wind70%29.99 "Hg10 mi
7:53 AM58 °FSunny.No wind81%29.99 "Hg10 mi
6:53 AM52 °FSunny.No wind93%29.99 "Hg10 mi
5:53 AM51 °FClear.No wind92%29.98 "Hg9 mi
4:53 AM50 °FClear.No wind93%29.97 "Hg10 mi
3:53 AM52 °FClear.5 mph89%29.96 "Hg10 mi
2:53 AM52 °FClear.5 mph89%29.98 "Hg10 mi
1:53 AM53 °FClear.No wind86%29.99 "Hg10 mi
12:53 AM54 °FClear.3 mph86%29.99 "Hg10 mi
11:53 PM
Fri, Jun 24
54 °FClear.No wind90%30.01 "Hg9 mi
10:53 PM56 °FClear.3 mph81%30.01 "Hg10 mi
9:53 PM58 °FClear.3 mph78%30.01 "Hg10 mi
8:53 PM57 °FSunny.6 mph81%30.01 "Hg10 mi
7:53 PM63 °FSunny.7 mph68%29.99 "Hg10 mi
6:53 PM67 °FSunny.6 mph59%29.99 "Hg10 mi
5:53 PM68 °FSunny.7 mph57%30.00 "Hg10 mi
4:53 PM69 °FSunny.9 mph57%30.01 "Hg10 mi
Weather by CustomWeather, © 2016

See weather overviewHow to use our weather pages